User: anonymous   Login
Location: Caltech
(34.1382°N, 118.1253°W)
Time: 03:28:54
(UTC-07:00)
Language:

ASTRO E2 - Orbit

View from above orbital plane
View from above orbital plane
View from above satellite
View from above satellite

Ground track
Ground track

The orbit data is extracted from the following two-line orbital elements,

1 28773U 05025A   15115.81287526  .00006984  00000-0  38730-3 0  9992
2 28773 031.3837 326.0966 0005023 057.3249 302.7881 15.12433260538491
Epoch (UTC): 25 April 2015 19:30:32
Eccentricity: 0.0005023
inclination: 31.3837°
perigee height: 525 km
apogee height: 532 km
right ascension of ascending node: 326.0966°
argument of perigee: 57.3249°
revolutions per day: 15.12433260
mean anomaly at epoch: 302.7881°
orbit number at epoch: 53849

The dashed part of the orbit path shows where the satellite is in the earth's shadow,  

DLR